Cloud_Cover
12 28 98 72 98 99 100 100 100 100 100 100 98 100 100 100 100 98 63 6 20 56 12 0 0 0 0 0 4 5 6 5 79 100 100 100 99 100 100 100 89 100 100 100 100 100 54 100 100
90 100 64 83 100 100 100 98 100 85 100 78 100 100 100 100 100 72 39 13 88 54 76 14 0 4 0 0 3 6 18 40 100 100 100 100 100 100 100 78 96 60 87 99 95 100 100 95 44
100 89 62 91 100 100 100 98 99 44 100 72 100 100 80 100 98 53 9 10 97 92 45 2 0 0 0 1 5 30 12 13 69 40 100 100 100 100 100 100 80 37 64 54 70 100 95 100 63
99 100 76 100 100 67 5 91 95 5 83 69 99 100 51 99 98 71 3 20 100 87 15 0 0 0 0 5 5 4 7 5 5 5 3 4 88 100 100 100 100 38 7 45 100 100 100 100 47
100 100 100 100 100 75 100 20 54 35 85 99 100 100 92 100 91 12 15 2 7 16 13 2 0 0 0 4 5 3 14 2 1 0 0 0 4 5 42 100 100 100 91 100 98 97 100 100 100
100 100 82 100 80 97 61 71 18 14 40 56 100 100 82 100 93 5 2 0 1 2 0 0 0 0 0 0 2 4 0 0 0 0 0 0 2 2 5 100 100 95 80 100 100 100 100 98 100
100 100 95 100 100 100 67 33 100 51 71 99 98 100 97 65 94 5 1 0 0 0 0 0 21 0 0 0 0 1 0 0 0 0 1 3 3 5 5 16 92 24 18 95 100 100 100 100 46
95 100 100 100 86 48 78 56 68 100 100 96 100 97 88 80 97 5 5 0 0 0 0 0 0 0 0 0 0 0 0 0 5 2 5 5 91 70 5 5 27 5 97 100 100 100 100 100 100
13 96 100 76 39 91 100 85 5 88 82 97 100 68 96 100 11 5 5 0 0 0 0 0 0 0 0 8 0 0 0 6 29 21 5 20 43 92 100 17 5 6 82 100 100 100 100 100 100
100 87 100 100 100 100 93 73 15 16 72 54 53 98 86 92 5 5 2 0 0 0 0 0 0 1 92 88 62 85 100 80 79 18 67 90 35 49 89 52 100 98 100 48 100 100 100 100 94
100 88 96 100 100 100 100 100 96 100 71 52 85 99 99 100 5 5 5 0 0 0 0 0 0 59 100 83 98 100 56 83 0 42 87 93 64 82 54 5 3 0 40 0 0 93 43 97 64
100 76 72 100 100 99 100 100 100 100 88 99 52 99 100 100 9 5 2 5 0 0 0 0 0 50 99 14 98 85 28 96 91 1 0 41 20 98 85 4 22 74 46 44 100 52 100 2 37
10 96 100 100 99 100 100 100 100 100 96 86 51 98 99 100 23 5 1 3 0 0 0 0 0 95 22 98 35 64 67 31 0 0 11 68 1 97 2 86 70 2 61 53 48 17 36 60 29
47 99 64 100 66 93 92 73 66 20 46 94 99 100 100 67 91 5 5 4 0 0 0 0 0 6 29 39 56 23 32 0 22 20 5 41 40 28 11 83 16 1 100 48 49 66 2 98 39
2 100 21 100 51 100 100 68 100 50 95 99 100 90 100 100 94 5 5 5 0 0 0 0 0 4 26 6 0 62 17 38 19 0 6 94 39 95 10 4 24 0 0 0 0 0 0 26 30
5 95 100 98 62 84 91 100 96 72 77 100 87 96 89 8 24 5 5 0 0 0 0 3 19 20 8 26 2 51 8 37 24 2 16 60 12 98 100 30 0 0 2 4 0 5 5 5 29
5 100 100 100 38 71 55 100 100 100 100 100 98 90 56 6 4 5 3 0 0 0 0 1 18 0 16 27 19 10 0 45 57 17 0 71 77 0 66 22 0 0 0 0 1 0 0 5 5
99 94 16 100 100 100 100 70 100 100 100 100 100 88 14 47 3 5 4 7 0 0 0 0 3 12 13 7 15 2 7 23 17 56 20 92 2 0 74 4 21 14 0 0 0 0 0 0 14
17 76 42 100 100 100 90 100 98 98 90 100 100 45 5 8 5 5 4 29 0 0 0 0 4 6 0 1 10 3 2 12 16 10 0 0 0 0 0 39 77 41 0 0 0 0 0 2 2
46 36 81 99 100 100 94 100 100 94 46 100 99 55 76 98 22 5 5 6 4 0 0 0 0 0 0 0 14 22 10 0 0 7 0 2 0 33 5 40 1 16 18 0 0 0 0 0 0
34 66 86 94 94 1 51 48 34 100 100 100 92 94 100 56 5 5 5 4 3 0 0 0 0 0 0 0 6 10 12 11 0 0 0 0 2 16 9 2 1 8 37 1 0 0 0 0 2
64 5 94 95 34 83 21 80 27 100 100 100 100 100 100 100 90 16 5 0 0 0 0 0 0 0 0 0 0 0 1 0 0 0 0 0 0 12 8 72 5 1 4 3 0 0 0 0 0
24 100 55 100 95 100 67 2 100 100 64 100 100 70 85 48 7 5 5 2 0 0 0 0 0 0 0 0 0 0 0 0 0 0 0 1 0 0 2 15 22 10 58 1 0 0 0 0 0
11 97 64 77 100 100 91 100 100 100 99 29 56 38 99 97 94 5 2 0 0 0 0 0 0 0 0 0 0 0 0 3 0 0 0 0 0 0 0 3 3 14 19 0 0 0 0 0 1
68 100 100 97 93 61 57 100 100 46 96 78 100 100 97 100 76 10 4 6 0 0 0 0 0 0 0 0 0 0 0 0 2 0 0 0 0 0 0 0 2 53 10 16 8 4 0 5 5
70 100 100 99 100 66 11 100 73 100 79 5 7 100 97 39 82 66 5 0 0 0 0 0 0 0 0 0 0 0 0 0 0 0 0 0 0 0 0 0 2 0 9 10 17 17 0 5 5
17 95 61 100 100 100 100 14 10 20 5 100 5 16 100 100 100 98 6 10 0 0 0 0 0 0 0 0 0 0 0 0 0 0 0 0 0 0 0 0 0 0 0 0 9 9 1 0 0
51 83 93 91 95 100 100 100 93 34 3 83 17 39 85 5 5 0 0 8 2 0 0 0 0 0 0 0 0 0 0 0 0 0 0 0 0 0 0 0 0 0 0 0 0 0 0 0 0
0 32 100 95 98 100 100 100 100 97 22 98 97 15 16 32 92 6 0 0 0 0 0 0 0 0 0 0 0 0 0 0 0 0 0 0 0 0 0 0 0 0 0 0 0 0 0 11 6
0 0 17 100 7 98 100 100 100 91 60 80 71 73 30 100 100 97 64 51 0 0 0 0 0 0 0 0 0 0 0 0 0 0 0 0 0 0 0 0 0 0 0 0 0 0 0 0 0